Location: Angwan Shehu
(11.2514°N, 7.4613°E)
Time: 23:18:02
(UTC+00:00)

N. Korean satellite - Pass Details

Date: 07 March 2021
Orbit: 453 x 499 km, 97.2° (Epoch: 12 April)

Event Time Altitude Azimuth Distance (km) Brightness Sun altitude
Rises 03:47:02 0° 41° (NE) 2,553 10.8 -29.0°
Reaches altitude 10° 03:50:01 10° 70° (ENE) 1,681 10.1 -28.2°
Maximum altitude 03:51:48 13° 99° (E) 1,496 9.9 -27.8°
Drops below altitude 10° 03:53:34 10° 129° (SE) 1,690 9.9 -27.4°
Sets 03:56:35 0° 156° (SSE) 2,577 10.5 -26.6°
